カタログに戻る

ONEWEB-0222

運用中通信PO
NORAD 48775·PAYLOAD·🇬🇧 United Kingdom

打ち上げ May 28, 2021 から Vostochny Cosmodrome

Loading…

次のパス (今後24時間)

TLE

最新Source: CelesTrak SupGP

元期: Sep 14, 2026, 19:25 UTC

1 48775C 21045J   26257.80918238  .00003661  00000+0  97372-2 0  2576
2 48775  87.8988 241.3203 0002001  79.2433 343.5690 13.15545121    16

AllMySatでONEWEB-0222をリアルタイム追跡

Download on the App Store